• In Deutschland
  • Länderverzeichnis
  • Für 7 Tage
  • Wassertemperatur
  • Satellitenkarten
  • Wetterkarte
  • Widgets
  • user-avatar
    Anmelden

    Stündliche Wetter Bad Kreuznach

    Heute, 17 Dezember, Sonntag

    Zeit Temperatur Niederschläge Wind Luftdruck Luftfeuchtigkeit
    00:00 0°C° 0 mm 3 m/S 751 mmHg 90%
    01:00 0°C° 0 mm 3 m/S 751 mmHg 90%
    02:00 0°C° 0 mm 3 m/S 751 mmHg 90%
    03:00 0°C° 0 mm 3 m/S 752 mmHg 91%
    04:00 -1°C° 0 mm 3 m/S 752 mmHg 91%
    05:00 -1°C° 0 mm 3 m/S 752 mmHg 90%
    06:00 -1°C° 0 mm 2 m/S 753 mmHg 90%
    07:00 -1°C° 0 mm 2 m/S 753 mmHg 90%
    08:00 -1°C° 0,1 mm 2 m/S 753 mmHg 89%
    09:00 +1°C° 0,1 mm 2 m/S 754 mmHg 88%
    10:00 +1°C° 0,1 mm 2 m/S 754 mmHg 87%
    11:00 +2°C° 0 mm 2 m/S 755 mmHg 85%
    12:00 +2°C° 0 mm 2 m/S 755 mmHg 83%
    13:00 +2°C° 0 mm 3 m/S 755 mmHg 81%
    14:00 +3°C° 0 mm 2 m/S 755 mmHg 82%
    15:00 +3°C° 0 mm 2 m/S 756 mmHg 83%
    16:00 +3°C° 0 mm 2 m/S 756 mmHg 83%
    17:00 +3°C° 0 mm 2 m/S 756 mmHg 85%
    18:00 +2°C° 0 mm 2 m/S 756 mmHg 86%
    19:00 +2°C° 0 mm 2 m/S 757 mmHg 87%
    20:00 +2°C° 0 mm 2 m/S 757 mmHg 88%
    21:00 +2°C° 0 mm 2 m/S 757 mmHg 89%
    22:00 +1°C° 0 mm 2 m/S 757 mmHg 90%
    23:00 0°C° 0 mm 3 m/S 757 mmHg 89%

    Morgen, 18 Dezember, Montag

    Zeit Temperatur Niederschläge Wind Luftdruck Luftfeuchtigkeit
    00:00 0°C° 0 mm 3 m/S 757 mmHg 88%
    01:00 -1°C° 0 mm 4 m/S 756 mmHg 88%
    02:00 -1°C° 0,2 mm 4 m/S 756 mmHg 86%
    03:00 -1°C° 0,2 mm 4 m/S 755 mmHg 85%
    04:00 -1°C° 0,2 mm 5 m/S 754 mmHg 84%
    05:00 0°C° 0,9 mm 5 m/S 754 mmHg 86%
    06:00 0°C° 0,9 mm 4 m/S 753 mmHg 89%
    07:00 0°C° 0,9 mm 4 m/S 753 mmHg 91%
    08:00 0°C° 0,5 mm 4 m/S 753 mmHg 92%
    09:00 +1°C° 0,5 mm 3 m/S 753 mmHg 94%
    10:00 +2°C° 0,5 mm 3 m/S 753 mmHg 95%
    11:00 +2°C° 0,1 mm 3 m/S 753 mmHg 94%
    12:00 +3°C° 0,1 mm 3 m/S 753 mmHg 94%
    13:00 +3°C° 0,1 mm 3 m/S 754 mmHg 93%
    14:00 +3°C° 0 mm 3 m/S 754 mmHg 92%
    15:00 +3°C° 0 mm 3 m/S 754 mmHg 91%
    16:00 +2°C° 0 mm 3 m/S 755 mmHg 90%
    17:00 +2°C° 0 mm 3 m/S 755 mmHg 91%
    18:00 +3°C° 0 mm 2 m/S 756 mmHg 92%
    19:00 +2°C° 0 mm 2 m/S 757 mmHg 93%
    20:00 +2°C° 0 mm 2 m/S 758 mmHg 93%
    21:00 +2°C° 0 mm 2 m/S 758 mmHg 94%
    22:00 +2°C° 0 mm 2 m/S 759 mmHg 94%
    23:00 +2°C° 0 mm 1 m/S 759 mmHg 94%

    übermorgen, 19 Dezember, Dienstag

    Zeit Temperatur Niederschläge Wind Luftdruck Luftfeuchtigkeit
    00:00 +2°C° 0 mm 1 m/S 760 mmHg 94%
    01:00 +2°C° 0 mm 1 m/S 760 mmHg 94%
    02:00 +2°C° 0 mm 1 m/S 760 mmHg 94%
    03:00 +2°C° 0 mm 1 m/S 761 mmHg 93%
    04:00 +2°C° 0 mm 1 m/S 761 mmHg 93%
    05:00 +1°C° 0 mm 1 m/S 761 mmHg 92%
    06:00 +1°C° 0 mm 1 m/S 762 mmHg 92%
    07:00 +1°C° 0 mm 1 m/S 762 mmHg 91%
    08:00 +2°C° 0 mm 1 m/S 763 mmHg 90%
    09:00 +2°C° 0 mm 1 m/S 763 mmHg 89%
    10:00 +2°C° 0 mm 1 m/S 764 mmHg 88%
    11:00 +3°C° 0 mm 1 m/S 764 mmHg 87%
    12:00 +4°C° 0 mm 1 m/S 764 mmHg 86%
    13:00 +5°C° 0 mm 1 m/S 764 mmHg 85%
    14:00 +5°C° 0 mm 1 m/S 764 mmHg 87%
    15:00 +4°C° 0 mm 1 m/S 764 mmHg 89%
    16:00 +4°C° 0 mm 1 m/S 764 mmHg 91%
    17:00 +4°C° 0 mm 1 m/S 764 mmHg 92%
    18:00 +3°C° 0 mm 1 m/S 764 mmHg 92%
    19:00 +3°C° 0 mm 1 m/S 764 mmHg 93%
    20:00 +3°C° 0 mm 1 m/S 764 mmHg 93%
    21:00 +3°C° 0 mm 1 m/S 764 mmHg 93%
    22:00 +3°C° 0 mm 1 m/S 764 mmHg 93%
    23:00 +1°C° 0 mm 2 m/S 764 mmHg 93%

    20 Dezember, Mittwoch

    Zeit Temperatur Niederschläge Wind Luftdruck Luftfeuchtigkeit
    00:00 +1°C° 0 mm 2 m/S 764 mmHg 93%
    01:00 +1°C° 0 mm 2 m/S 764 mmHg 93%
    02:00 +1°C° 0 mm 2 m/S 763 mmHg 92%
    03:00 +2°C° 0 mm 2 m/S 763 mmHg 91%
    04:00 +2°C° 0 mm 2 m/S 763 mmHg 91%
    05:00 +2°C° 0 mm 2 m/S 763 mmHg 91%
    06:00 +2°C° 0 mm 2 m/S 763 mmHg 92%
    07:00 +2°C° 0 mm 2 m/S 763 mmHg 92%
    08:00 +3°C° 0 mm 2 m/S 763 mmHg 93%
    09:00 +3°C° 0 mm 2 m/S 763 mmHg 93%
    10:00 +4°C° 0 mm 2 m/S 764 mmHg 94%
    11:00 +4°C° 0 mm 2 m/S 763 mmHg 94%
    12:00 +4°C° 0 mm 2 m/S 763 mmHg 94%
    13:00 +5°C° 0 mm 2 m/S 763 mmHg 94%
    14:00 +5°C° 0 mm 2 m/S 763 mmHg 94%
    15:00 +5°C° 0 mm 2 m/S 763 mmHg 95%
    16:00 +5°C° 0 mm 2 m/S 763 mmHg 95%
    17:00 +5°C° 0 mm 2 m/S 763 mmHg 96%
    18:00 +6°C° 0 mm 1 m/S 763 mmHg 96%
    19:00 +5°C° 0 mm 1 m/S 764 mmHg 96%
    20:00 +6°C° 0 mm 1 m/S 764 mmHg 96%
    21:00 +6°C° 0 mm 1 m/S 764 mmHg 96%
    22:00 +6°C° 0 mm 1 m/S 764 mmHg 96%
    23:00 +5°C° 0 mm 2 m/S 764 mmHg 96%

    21 Dezember, Donnerstag

    Zeit Temperatur Niederschläge Wind Luftdruck Luftfeuchtigkeit
    00:00 +5°C° 0 mm 2 m/S 764 mmHg 96%
    01:00 +5°C° 0 mm 2 m/S 764 mmHg 96%
    02:00 +5°C° 0 mm 2 m/S 763 mmHg 96%
    03:00 +5°C° 0 mm 2 m/S 763 mmHg 96%
    04:00 +5°C° 0 mm 2 m/S 763 mmHg 96%
    05:00 +5°C° 0 mm 2 m/S 763 mmHg 96%
    06:00 +4°C° 0 mm 3 m/S 763 mmHg 96%
    07:00 +5°C° 0 mm 3 m/S 763 mmHg 96%
    08:00 +5°C° 0 mm 3 m/S 763 mmHg 95%
    09:00 +5°C° 0 mm 3 m/S 763 mmHg 94%
    10:00 +6°C° 0 mm 4 m/S 763 mmHg 93%
    11:00 +6°C° 0 mm 4 m/S 763 mmHg 92%
    12:00 +7°C° 0 mm 4 m/S 762 mmHg 91%
    13:00 +7°C° 0 mm 4 m/S 762 mmHg 89%
    14:00 +7°C° 0 mm 4 m/S 762 mmHg 89%
    15:00 +7°C° 0 mm 4 m/S 762 mmHg 89%
    16:00 +7°C° 0 mm 4 m/S 761 mmHg 90%
    17:00 +7°C° 0 mm 5 m/S 761 mmHg 90%
    18:00 +7°C° 0 mm 5 m/S 761 mmHg 90%
    19:00 +7°C° 0 mm 5 m/S 761 mmHg 90%
    20:00 +7°C° 0,1 mm 5 m/S 761 mmHg 89%
    21:00 +7°C° 0,1 mm 5 m/S 761 mmHg 89%
    22:00 +7°C° 0,1 mm 5 m/S 760 mmHg 88%
    23:00 +7°C° 0,1 mm 5 m/S 760 mmHg 88%

    22 Dezember, Freitag

    Zeit Temperatur Niederschläge Wind Luftdruck Luftfeuchtigkeit
    00:00 +7°C° 0,1 mm 5 m/S 759 mmHg 88%
    01:00 +8°C° 0,1 mm 5 m/S 758 mmHg 87%
    02:00 +8°C° 0,6 mm 6 m/S 758 mmHg 87%
    03:00 +8°C° 0,6 mm 6 m/S 757 mmHg 88%
    04:00 +8°C° 0,6 mm 7 m/S 757 mmHg 88%
    05:00 +6°C° 0,6 mm 7 m/S 757 mmHg 85%
    06:00 +6°C° 0,6 mm 7 m/S 758 mmHg 82%
    07:00 +5°C° 0,6 mm 6 m/S 759 mmHg 80%
    08:00 +5°C° 0 mm 6 m/S 760 mmHg 79%
    09:00 +5°C° 0 mm 5 m/S 762 mmHg 79%
    10:00 +5°C° 0 mm 5 m/S 763 mmHg 78%
    11:00 +5°C° 0 mm 5 m/S 764 mmHg 76%
    12:00 +5°C° 0 mm 5 m/S 764 mmHg 74%
    13:00 +6°C° 0 mm 5 m/S 765 mmHg 72%
    14:00 +5°C° 0 mm 4 m/S 765 mmHg 73%
    15:00 +5°C° 0 mm 4 m/S 765 mmHg 74%
    16:00 +5°C° 0 mm 4 m/S 766 mmHg 76%
    17:00 +4°C° 0 mm 4 m/S 766 mmHg 78%
    18:00 +4°C° 0 mm 3 m/S 766 mmHg 81%
    19:00 +3°C° 0 mm 3 m/S 767 mmHg 83%
    20:00 +3°C° 0 mm 4 m/S 767 mmHg 84%
    21:00 +3°C° 0 mm 4 m/S 767 mmHg 85%
    22:00 +3°C° 0 mm 4 m/S 767 mmHg 86%
    23:00 +3°C° 0 mm 4 m/S 767 mmHg 85%
    Mehr zeigen